Piloto Civil Norberto Fernandez current weather conditions

sailwx.info

Air temperature 5.0° C
Visibility: greater than 2.2 NM
Dewpoint 4.0° C
Present weather: Light drizzle mist.

Last reported at 2014-Sep-01 09:00 UTC.
Time now 2014-Sep-01 11:36 UTC

Location: S 51°37' W 069°19'.
View on Google Maps.

See reports from other nearby stations

  
Tides and Currents Weather Stations Pressure Air Temp Water Temp Dewpoint Dewpoint Depression Visibility Wind Speed Wind Dir Waves Ship Positions
date/time (UTC)wind fromknots sea level pressurealtimeterstation pressurevisibilityair tempwater tempwave heightnotes
2014-Sep-01 10:00 2.7 5.0 Mist.
2014-Sep-01 09:00 2.2 5.0 Light drizzle mist.
2014-Sep-01 08:00 2.2 5.0 Light drizzle mist.
2014-Sep-01 07:00 2.2 5.0 Light drizzle mist.
2014-Sep-01 06:00 070 3 2.2 5.0 Light drizzle mist.
2014-Sep-01 05:20 1.1 5.0 Mist.
2014-Sep-01 05:00 070 3 0.5 5.0 Light fog.
2014-Sep-01 04:50 070 2 0.8 5.0 Mist.
2014-Sep-01 04:00 3.2 5.0 Mist.
2014-Sep-01 03:00 2.2 5.0 Mist.
2014-Sep-01 02:00 020 3 2.2 5.0 Mist.
2014-Sep-01 01:00 050 3 0.8 5.0
2014-Sep-01 00:00 050 3 0.5 5.0 Fog.
2014-Aug-31 23:00 3.2 5.0 Mist.
2014-Aug-31 22:00 050 4 3.2 6.0 Mist.
2014-Aug-31 21:00 050 6 4.3 6.0 Mist.
2014-Aug-31 20:00 050 5 4.9 7.0 Mist.
2014-Aug-31 19:00 050 7 4.3 7.0
2014-Aug-31 18:00 050 6 1.6 6.0 Light drizzle.
2014-Aug-31 17:00 5.4 7.0 Drizzle.
2014-Aug-31 16:25 5.4 6.0 Drizzle.
2014-Aug-31 16:00 5.4 6.0 Patches of fog.
2014-Aug-31 15:00 020 6 5.4 6.0 Patches of fog.
2014-Aug-31 14:00 050 4 5.4 6.0 Patches of fog.
2014-Aug-31 13:00 5.4 5.0 Light drizzle.
2014-Aug-31 12:00 5.4 5.0
2014-Aug-31 11:25 5.4 5.0 Light rain.
2014-Aug-31 11:00 5.4 5.0 Light rain.
2014-Aug-31 10:20 5.4 5.0 Light rain.
2014-Aug-31 10:00 5.4 5.0
2014-Aug-31 09:00 5.4 5.0
2014-Aug-31 08:00 050 5 4.3 6.0 Light drizzle rain.
2014-Aug-31 07:00 050 5 3.8 6.0 Light drizzle rain.
2014-Aug-31 06:00 050 4 3.8 5.0 Light drizzle rain.
2014-Aug-31 05:00 050 6 3.2 6.0 Light drizzle rain.
2014-Aug-31 04:00 050 4 2.7 6.0 Light drizzle rain.
2014-Aug-31 03:00 050 6 3.2 6.0 Light drizzle rain.
2014-Aug-31 02:00 050 5 2.7 5.0 Light drizzle rain.
2014-Aug-31 01:00 070 4 2.2 5.0 Light drizzle mist.
2014-Aug-31 00:00 2.7 5.0 Mist.
2014-Aug-30 23:00 050 3 2.7 5.0
2014-Aug-30 22:00 050 5 2.2 5.0 Light drizzle mist.
2014-Aug-30 21:00 050 5 2.2 5.0 Light drizzle mist.
2014-Aug-30 20:00 050 5 2.7 5.0 Light drizzle mist.
2014-Aug-30 19:00 050 5 2.7 6.0 Mist.
2014-Aug-30 18:00 050 5 2.7 6.0 Mist.
2014-Aug-30 17:00 090 7 3.2 6.0 Mist.
2014-Aug-30 16:00 090 10 1.6 6.0 Light drizzle.
2014-Aug-30 15:00 090 8 1.6 6.0 Light drizzle.
2014-Aug-30 14:00 090 7 1.6 5.0 Light drizzle.
2014-Aug-30 13:00 090 6 1.1 5.0 Light drizzle.
2014-Aug-30 12:00 090 9 1.1 5.0 Light drizzle.
2014-Aug-30 11:00 090 9 2.2 5.0 Light drizzle.